Flight Track Log - Related Links

Times and Time Zones

All times are in EDT time to prevent confusion due to time zone crossing. See the OPT439 flight status page for this flight to view local times or setup timezone preferences in your user account.

Time Position Orientation Groundspeed Altitude Reporting Facility
EDT Latitude Longitude Course Direction KTS MPH feet Rate Location/Type
Sun 10:12:45 AM 40.0833 -75.0167 252° West 176 203 700  Level Philadelphia TRACON
Sun 10:13:33 AM 40.0667 -75.0833 252° West 199 229 2,700 2,438 Climbing Philadelphia TRACON
Sun 10:14:21 AM 40.0500 -75.1500 252° West 241 277 4,600 1,278 Climbing Philadelphia TRACON
Sun 10:15:21 AM 40.0333 -75.2333 255° West 280 322 5,000 190 Climbing Philadelphia TRACON
Sun 10:16:27 AM 40.0000 -75.3333 247° West 266 306 5,000  Level Philadelphia TRACON
Sun 10:17:32 AM 39.9844 -75.4197 257° West 264 304 5,000 960 Level New York Center
Sun 10:18:32 AM 39.9597 -75.5131 251° West 264 304 7,000 2,542 Climbing New York Center
Sun 10:19:30 AM 39.9478 -75.6069 261° West 264 304 10,000 2,949 Climbing New York Center
Sun 10:20:30 AM 39.9436 -75.7042 267° West 269 310 12,800 2,459 Climbing New York Center
Sun 10:21:32 AM 39.9436 -75.8017 270° West 269 310 15,000 2,213 Climbing New York Center
Sun 10:22:32 AM 39.9411 -75.9069 268° West 282 325 17,300 2,085 Climbing New York Center
Sun 10:23:30 AM 39.9428 -76.0156 271° West 292 336 19,100 1,815 Climbing New York Center
Sun 10:24:31 AM 39.9417 -76.1292 269° West 302 348 20,900 1,736 Climbing New York Center
Sun 10:25:31 AM 39.9361 -76.2506 267° West 313 360 22,600 1,587 Climbing New York Center
Sun 10:26:32 AM 39.9350 -76.3669 269° West 320 368 24,100 1,289 Climbing New York Center
Sun 10:27:32 AM 39.9353 -76.4861 270° West 326 375 25,200 1,041 Climbing New York Center
Sun 10:28:33 AM 39.9294 -76.6103 267° West 336 387 26,200 1,017 Climbing New York Center
Sun 10:29:30 AM 39.9294 -76.7347 270° West 341 392 27,200 1,026 Climbing New York Center
Sun 10:30:30 AM 39.9356 -76.8597 274° West 347 399 28,200 992 Climbing New York Center
Sun 10:31:31 AM 39.9389 -76.9956 272° West 357 411 29,200 934 Climbing New York Center
Sun 10:32:32 AM 39.9444 -77.1261 273° West 362 417 30,100 958 Climbing New York Center
Sun 10:33:30 AM 39.9497 -77.2567 273° West 368 423 31,100 1,000 Climbing New York Center
Sun 10:35:20 AM 39.9586 -77.5006 273° West 367 422 32,900 988 Climbing Cleveland Center
Sun 10:36:20 AM 39.9625 -77.6386 272° West 367 422 33,900 950 Climbing Cleveland Center
Sun 10:37:20 AM 39.9681 -77.7767 273° West 378 435 34,800 950 Climbing Cleveland Center
Sun 10:38:20 AM 39.9733 -77.9119 273° West 378 435 35,800 1,000 Climbing Cleveland Center
Sun 10:39:20 AM 39.9764 -78.0472 272° West 383 441 36,800 1,000 Climbing Cleveland Center
Sun 10:40:20 AM 39.9814 -78.1825 273° West 383 441 37,800 1,000 Climbing Cleveland Center
Sun 10:41:20 AM 39.9778 -78.3156 268° West 383 441 38,800 1,000 Climbing Cleveland Center
Sun 10:42:20 AM 39.9825 -78.4453 273° West 378 435 39,800 600 Climbing Cleveland Center
Sun 10:43:20 AM 39.9847 -78.5753 271° West 373 429 40,000 100 Climbing Cleveland Center
Sun 10:44:20 AM 39.9892 -78.7106 272° West 368 423 40,000  Level Cleveland Center
Sun 10:45:20 AM 39.9914 -78.8433 271° West 368 423 40,000  Level Cleveland Center
Sun 10:46:20 AM 39.9953 -78.9733 272° West 362 417 40,000  Level Cleveland Center
Sun 10:47:20 AM 39.9992 -79.1033 272° West 362 417 40,000  Level Cleveland Center
Sun 10:48:20 AM 40.0028 -79.2333 272° West 362 417 40,000  Level Cleveland Center
Sun 10:49:20 AM 40.0044 -79.3633 271° West 362 417 40,000  Level Cleveland Center
Sun 10:50:20 AM 40.0056 -79.4936 271° West 362 417 40,000  Level Cleveland Center
Sun 10:51:20 AM 40.0069 -79.6208 271° West 362 417 40,000  Level Cleveland Center
Sun 10:52:20 AM 40.0100 -79.7536 272° West 362 417 40,000  Level Cleveland Center
Sun 10:53:20 AM 40.0108 -79.8839 271° West 362 417 40,000 -500 Level Cleveland Center
Sun 10:54:20 AM 40.0114 -79.9975 270° West 362 417 39,000 -1,500 Descending Cleveland Center
Sun 10:55:20 AM 40.0142 -80.1331 272° West 367 422 37,000 -2,000 Descending Cleveland Center
Sun 10:56:20 AM 40.0147 -80.2658 270° West 367 422 35,000 -2,039 Descending Cleveland Center
Sun 10:58:43 AM 40.0156 -80.5864 270° West 369 425 30,100 -2,020 Descending Indianapolis Center
Sun 10:59:45 AM 40.0158 -80.7219 270° West 370 426 28,100 -1,016 Descending Indianapolis Center
Sun 11:00:47 AM 40.0219 -80.8617 273° West 379 436 28,000 -49 Descending Indianapolis Center
Sun 11:01:48 AM 40.0400 -80.9986 280° West 382 440 28,000  Level Indianapolis Center
Sun 11:02:50 AM 40.0614 -81.1606 280° West 386 444 28,000  Level Indianapolis Center
Sun 11:03:52 AM 40.0786 -81.2997 279° West 385 443 28,000  Level Indianapolis Center
Sun 11:04:53 AM 40.0961 -81.4406 279° West 388 447 28,000  Level Indianapolis Center
Sun 11:05:55 AM 40.1144 -81.5803 278° West 388 447 28,000  Level Indianapolis Center
Sun 11:06:00 AM 40.1122 -81.5714 278° West  Level FlightAware Approximate
Sun 11:06:57 AM 40.1314 -81.7203 279° West 387 445 28,000  Level Indianapolis Center
Sun 11:07:58 AM 40.1478 -81.8478 280° West 385 443 27,100 -1,268 Descending Indianapolis Center
Sun 11:09:00 AM 40.1628 -81.9658 279° West 392 451 25,400 -2,129 Descending Indianapolis Center
Sun 11:10:02 AM 40.1839 -82.1483 279° West 380 437 22,700 -2,146 Descending Indianapolis Center
Sun 11:11:03 AM 40.2011 -82.2842 279° West 377 434 21,000 -1,415 Descending Indianapolis Center
Sun 11:12:05 AM 40.2161 -82.4172 278° West 368 423 19,800 -1,016 Descending Indianapolis Center
Sun 11:13:07 AM 40.2308 -82.5469 278° West 359 413 18,900 -1,317 Descending Indianapolis Center
Sun 11:14:08 AM 40.2461 -82.6719 279° West 348 400 17,100 -1,854 Descending Indianapolis Center
Sun 11:15:10 AM 40.2522 -82.8122 273° West 341 392 15,100 -1,839 Descending Indianapolis Center
Sun 11:16:12 AM 40.2456 -82.9242 266° West 343 395 13,300 -1,951 Descending Indianapolis Center
Sun 11:17:13 AM 40.2375 -83.0706 266° West 345 397 11,100 -1,532 Descending Indianapolis Center
Sun 11:17:46 AM 40.2478 -83.1331 282° West 330 380 10,900 -750 Descending Indianapolis Center
Sun 11:18:41 AM 40.2686 -83.2433 284° West 328 377 10,000 -593 Descending Indianapolis Center
Sun 11:19:17 AM 40.2792 -83.3028 283° West 325 374 10,000 -557 Level Indianapolis Center
Sun 11:20:18 AM 40.2986 -83.4111 283° West 309 356 9,100 -1,370 Descending Indianapolis Center
Sun 11:20:49 AM 40.3075 -83.4667 282° West 274 315 7,900 -1,935 Descending Indianapolis Center
Sun 11:21:20 AM 40.3167 -83.5069 287° West 276 318 7,100 -2,066 Descending Indianapolis Center
Sun 11:21:50 AM 40.3250 -83.5658 281° West 270 311 5,800 -2,032 Descending Indianapolis Center
Sun 11:22:22 AM 40.3331 -83.6017 286° West 267 307 5,000 -1,742 Descending Indianapolis Center
Sun 11:23:23 AM 40.3506 -83.6958 284° West 265 305 3,100 -976 Descending Indianapolis Center
Sun 11:24:25 AM 40.3656 -83.7869 282° West 260 299 3,000 -97 Descending Indianapolis Center
Sun 11:26:00 AM 40.3667 -83.8167 270° West  Level FlightAware Approximate
Sun 11:33:00 AM 40.3723 -83.8193 270° West  Level Estimated
Sun 11:34:00 AM 40.3667 -83.8167 270° West  Level FlightAware Approximate

Login

Don't have an account? Register now (free) for customized features, flight alerts, and more!